period_start,C,m1,H,J0,J1,J2,J3,J4,J5,JA,JB,JC,JD,JJ,JK,JN,#
2015-12-03 00:04:29,0.25,0.69,0.00,21.32,25.87,29.38,14.66,50.13,1020.82,2038.95,3280.82,3009.95,3359.86,599.89,601.83,2.42,0000 0000 0000 0000 000000
2015-12-03 00:09:31,0.25,0.70,0.00,21.32,25.87,29.46,14.77,50.13,1020.85,2038.98,3275.61,3006.35,3355.75,600.13,602.06,2.47,0000 0000 0000 0000 000000
2015-12-03 00:14:32,0.27,0.71,0.00,21.32,25.87,29.48,14.83,50.20,1020.87,2038.98,3270.09,3002.39,3351.37,600.02,601.99,2.52,0000 0000 0000 0000 000000
2015-12-03 00:19:33,0.24,0.72,0.00,21.32,25.87,29.45,14.72,50.16,1020.69,2038.98,3264.90,2998.65,3347.32,599.94,601.75,2.57,0000 0000 0000 0000 000000
2015-12-03 00:24:35,0.26,0.74,0.00,21.29,25.87,29.43,14.68,50.10,1020.65,2038.98,3259.75,2994.81,3342.97,599.59,601.47,2.62,0000 0000 0000 0000 000000
2015-12-03 00:29:36,0.39,0.75,0.00,21.33,25.87,29.47,14.83,50.14,1020.84,2038.95,3252.77,2989.74,3337.44,599.99,601.92,2.67,0000 0000 0000 0000 000000
2015-12-03 00:34:37,0.49,0.78,0.00,21.28,25.87,29.48,14.70,50.16,1020.81,2038.92,3242.71,2982.67,3329.82,599.73,601.74,2.72,0000 0000 0000 0000 000000
2015-12-03 00:39:38,0.52,0.80,0.00,21.25,25.87,29.54,14.77,50.27,1020.87,2038.96,3232.03,2975.21,3321.84,599.98,602.05,2.77,0000 0000 0000 0000 000000
2015-12-03 00:44:40,0.64,0.83,0.00,21.27,25.87,29.48,14.75,50.13,1020.92,2038.91,3219.47,2966.37,3312.27,599.87,601.94,2.82,0000 0000 0000 0000 000000
2015-12-03 00:49:41,0.59,0.86,0.00,21.30,25.87,29.46,14.80,50.31,1020.84,2038.89,3206.60,2957.48,3302.71,599.89,601.78,2.88,0000 0000 0000 0000 000000
2015-12-03 00:54:42,0.52,0.89,0.00,21.30,25.87,29.37,14.70,50.27,1020.95,2038.84,3195.70,2949.74,3294.31,599.70,601.60,2.93,0000 0000 0000 0000 000000
2015-12-03 00:59:43,0.58,0.92,0.63,21.29,25.87,29.41,14.70,50.28,1020.99,2038.76,3183.81,2941.44,3285.11,599.82,601.89,2.98,0000 0000 0000 0000 000000
2015-12-03 01:04:45,0.50,0.95,1.00,21.31,25.88,29.42,14.68,50.26,1020.98,2038.66,3173.02,2933.89,3276.97,600.08,602.00,3.03,0000 0000 0000 0000 000000
2015-12-03 01:09:46,0.32,0.97,1.00,21.32,25.89,29.44,14.70,50.26,1020.97,2038.58,3165.43,2928.51,3271.06,599.85,601.80,3.08,0000 0000 0000 0000 000000
2015-12-03 01:14:47,0.24,0.98,1.00,21.33,25.89,29.49,14.73,50.24,1020.94,2038.52,3160.40,2924.86,3267.02,599.83,601.63,3.13,0000 0000 0000 0000 000000
2015-12-03 01:19:48,0.21,0.99,1.00,21.33,25.90,29.54,14.76,50.31,1020.99,2038.34,3155.88,2921.57,3263.57,600.02,601.86,3.18,0000 0000 0000 0000 000000
2015-12-03 01:24:49,0.18,1.00,1.00,21.29,25.90,29.50,14.79,50.35,1020.99,2038.23,3151.86,2918.61,3260.47,599.88,601.95,3.23,0000 0000 0000 0000 000000
2015-12-03 01:29:51,0.17,1.01,0.37,21.29,25.90,29.50,14.73,50.23,1020.98,2038.14,3148.21,2915.92,3257.39,599.88,602.06,3.28,0000 0000 0000 0000 000000
2015-12-03 01:34:52,0.18,1.02,0.00,21.29,25.90,29.42,14.75,50.29,1020.99,2038.07,3144.65,2913.25,3254.41,599.88,601.95,3.33,0000 0000 0000 0000 000000
2015-12-03 01:39:53,0.17,1.03,0.00,21.31,25.90,29.47,14.76,50.33,1020.98,2038.06,3141.24,2910.67,3251.56,600.11,602.05,3.38,0000 0000 0000 0000 000000
2015-12-03 01:44:54,0.19,1.04,0.00,21.32,25.90,29.41,14.79,50.41,1020.99,2038.09,3137.66,2908.01,3248.64,600.01,602.04,3.43,0000 0000 0000 0000 000000
2015-12-03 01:49:56,0.18,1.05,0.00,21.33,25.90,29.42,14.73,50.41,1020.95,2038.07,3134.25,2905.35,3245.75,599.79,601.65,3.48,0000 0000 0000 0000 000000
2015-12-03 01:54:57,0.19,1.06,0.00,21.35,25.90,29.49,14.76,50.45,1020.97,2038.04,3130.67,2902.66,3242.73,600.18,602.16,3.53,0000 0000 0000 0000 000000
2015-12-03 01:59:58,0.21,1.07,0.00,21.35,25.90,29.49,14.70,50.47,1020.98,2038.02,3126.61,2899.67,3239.42,599.98,601.88,3.58,0000 0000 0000 0000 000000
2015-12-03 02:04:59,0.21,1.08,0.00,21.23,25.90,29.49,14.76,50.42,1020.99,2038.03,3122.52,2896.61,3236.06,600.01,602.21,3.63,0000 0000 0000 0000 000000
2015-12-03 02:10:01,0.24,1.09,0.00,20.92,25.88,29.52,14.87,50.51,1020.96,2038.03,3118.11,2893.43,3232.60,600.11,602.93,3.68,0000 0000 0000 0000 000000
2015-12-03 02:15:02,0.23,1.10,0.00,20.67,25.87,29.54,14.84,50.54,1020.98,2038.06,3113.52,2890.10,3228.92,600.03,603.40,3.73,0000 0000 0000 0000 000000
2015-12-03 02:20:03,0.28,1.11,0.00,20.53,25.85,29.52,14.92,50.57,1020.99,2038.28,3108.57,2886.60,3225.08,600.36,604.03,3.78,0000 0000 0000 0000 000000
2015-12-03 02:25:05,0.29,1.13,0.00,20.44,25.84,29.54,14.83,50.48,1020.99,2038.46,3103.17,2882.74,3220.83,599.84,603.65,3.83,0000 0000 0000 0000 000000
2015-12-03 02:30:06,0.25,1.14,0.00,20.37,25.81,29.46,14.82,50.56,1020.96,2038.75,3098.62,2879.48,3217.11,599.94,603.83,3.88,0000 0000 0000 0000 000000
2015-12-03 02:35:07,0.23,1.16,0.00,20.30,25.79,29.46,14.89,50.56,1020.83,2038.88,3094.51,2876.53,3213.68,600.07,604.15,3.93,0000 0000 0000 0000 000000
2015-12-03 02:40:08,0.20,1.17,0.00,20.20,25.76,29.48,14.89,50.63,1020.77,2038.95,3090.61,2873.67,3210.55,600.10,604.30,3.98,0000 0000 0000 0000 000000
2015-12-03 02:45:09,0.21,1.18,0.00,20.06,25.73,29.42,14.86,50.58,1020.89,2038.97,3086.60,2870.82,3207.47,600.27,604.85,4.03,0000 0000 0000 0000 000000
2015-12-03 02:50:11,0.57,1.20,0.00,19.82,25.69,29.37,14.87,50.57,1020.96,2038.99,3078.03,2865.20,3201.06,600.00,605.08,4.08,0000 0000 0000 0000 000000
2015-12-03 02:55:12,0.25,1.22,0.00,19.75,25.65,29.21,14.90,50.63,1020.96,2039.00,3070.90,2859.96,3195.31,599.97,605.23,4.13,0000 0000 0000 0000 000000
2015-12-03 03:00:13,0.19,1.23,0.00,19.67,25.60,29.08,14.88,50.59,1020.74,2039.01,3066.89,2857.04,3192.26,600.28,605.54,4.18,0000 0000 0000 0000 000000
2015-12-03 03:05:15,0.20,1.24,0.00,19.60,25.55,29.02,14.95,50.67,1020.69,2039.12,3063.37,2854.47,3189.40,599.87,605.24,4.23,0000 0000 0000 0000 000000
2015-12-03 03:10:16,0.26,1.25,0.00,19.62,25.50,28.92,14.91,50.55,1020.71,2039.65,3059.59,2851.76,3186.37,599.80,605.15,4.28,0000 0000 0000 0000 000000
2015-12-03 03:15:17,0.20,1.26,0.00,19.66,25.45,28.82,14.84,50.53,1020.62,2039.93,3055.97,2849.16,3183.51,599.84,605.00,4.33,0000 0000 0000 0000 000000
2015-12-03 03:20:19,0.18,1.27,0.00,19.65,25.39,28.78,14.90,50.53,1020.60,2039.98,3052.60,2846.63,3180.82,600.25,605.25,4.38,0000 0000 0000 0000 000000
2015-12-03 03:25:20,0.16,1.28,0.00,19.66,25.34,28.75,15.00,50.73,1020.70,2040.00,3049.36,2844.34,3178.23,600.36,605.61,4.43,0000 0000 0000 0000 000000
2015-12-03 03:30:21,0.20,1.29,0.00,19.64,25.28,28.71,14.87,50.67,1020.62,2040.02,3046.01,2841.91,3175.45,599.80,605.12,4.48,0000 0000 0000 0000 000000
2015-12-03 03:35:23,0.18,1.30,0.00,19.65,25.23,28.64,14.93,50.73,1020.56,2040.15,3042.76,2839.56,3172.90,599.96,605.14,4.53,0000 0000 0000 0000 000000
2015-12-03 03:40:24,0.22,1.31,0.00,19.71,25.17,28.64,14.89,50.66,1020.56,2040.76,3039.69,2837.33,3170.46,600.18,605.39,4.58,0000 0000 0000 0000 000000
2015-12-03 03:45:25,0.17,1.32,0.00,19.74,25.12,28.60,14.85,50.68,1020.60,2040.96,3036.48,2835.08,3168.04,599.94,604.94,4.63,0000 0000 0000 0000 000000
2015-12-03 03:50:26,0.16,1.33,0.00,19.77,25.07,28.54,14.83,50.67,1020.62,2040.99,3033.43,2832.98,3165.65,599.94,604.99,4.68,0000 0000 0000 0000 000000
2015-12-03 03:55:27,0.15,1.34,0.00,19.77,25.03,28.56,14.89,50.55,1020.55,2041.00,3030.62,2830.93,3163.42,599.86,604.97,4.73,0000 0000 0000 0000 000000
2015-12-03 04:00:29,0.16,1.35,0.00,19.80,24.98,28.56,14.81,50.53,1020.54,2041.07,3027.62,2828.78,3161.04,599.85,604.71,4.78,0000 0000 0000 0000 000000
2015-12-03 04:05:30,0.19,1.36,0.00,19.81,24.95,28.48,14.87,50.77,1020.53,2041.40,3024.80,2826.72,3158.78,599.98,604.79,4.83,0000 0000 0000 0000 000000
2015-12-03 04:10:31,0.19,1.36,0.00,19.83,24.91,28.47,14.80,50.63,1020.52,2041.90,3021.96,2824.63,3156.49,599.70,604.51,4.88,0000 0000 0000 0000 000000
2015-12-03 04:15:32,0.16,1.37,0.00,19.84,24.88,28.46,14.86,50.63,1020.53,2041.99,3019.08,2822.55,3154.20,599.98,604.78,4.93,0000 0000 0000 0000 000000
2015-12-03 04:20:34,0.15,1.38,0.00,19.85,24.84,28.44,14.82,50.75,1020.53,2041.99,3016.13,2820.41,3151.88,600.06,604.81,4.98,0000 0000 0000 0000 000000
2015-12-03 04:25:35,0.16,1.39,0.00,19.89,24.81,28.42,14.80,50.61,1020.54,2042.01,3013.16,2818.24,3149.52,599.91,604.60,5.03,0000 0000 0000 0000 000000
2015-12-03 04:30:36,0.16,1.40,0.00,19.89,24.79,28.42,14.88,50.78,1020.54,2042.02,3010.23,2816.12,3147.08,600.16,604.84,5.08,0000 0000 0000 0000 000000
2015-12-03 04:35:38,0.17,1.41,0.00,19.91,24.77,28.34,14.87,50.69,1020.55,2042.11,3007.42,2814.00,3144.59,599.86,604.46,5.13,0000 0000 0000 0000 000000
2015-12-03 04:40:39,0.18,1.42,0.00,19.93,24.75,28.32,14.84,50.74,1020.54,2042.35,3004.54,2811.82,3142.18,600.05,604.65,5.18,0000 0000 0000 0000 000000
2015-12-03 04:45:40,0.22,1.43,0.00,19.95,24.73,28.37,14.83,50.78,1020.53,2042.71,3001.26,2809.38,3139.53,599.77,604.32,5.23,0000 0000 0000 0000 000000
2015-12-03 04:50:41,0.18,1.44,0.00,19.96,24.72,28.36,14.86,50.74,1020.52,2042.88,2998.07,2807.05,3136.81,599.96,604.50,5.29,0000 0000 0000 0000 000000
2015-12-03 04:55:42,0.19,1.45,0.00,19.97,24.71,28.37,14.82,50.70,1020.53,2042.95,2994.60,2804.47,3134.25,600.09,604.58,5.34,0000 0000 0000 0000 000000
2015-12-03 05:00:43,0.20,1.46,0.00,19.99,24.70,28.37,14.81,50.80,1020.55,2042.98,2990.95,2801.75,3131.22,600.14,604.64,5.39,0000 0000 0000 0000 000000
2015-12-03 05:05:45,0.17,1.47,0.00,20.00,24.69,28.35,14.87,50.65,1020.54,2042.98,2987.84,2799.38,3128.51,599.87,604.35,5.44,0000 0000 0000 0000 000000
2015-12-03 05:10:46,0.17,1.48,0.00,20.01,24.67,28.27,14.78,50.63,1020.59,2042.99,2984.84,2797.06,3125.94,599.70,604.23,5.49,0000 0000 0000 0000 000000
2015-12-03 05:15:47,0.16,1.48,0.00,19.99,24.67,28.29,14.86,50.78,1020.57,2042.98,2981.80,2794.84,3123.47,600.13,604.63,5.54,0000 0000 0000 0000 000000
2015-12-03 05:20:48,0.17,1.49,0.00,20.02,24.67,28.25,14.76,50.67,1020.55,2042.99,2978.76,2792.52,3120.95,599.84,604.30,5.59,0000 0000 0000 0000 000000
2015-12-03 05:25:50,0.17,1.50,0.00,20.03,24.66,28.26,14.87,50.75,1020.57,2042.99,2975.65,2790.25,3118.41,599.93,604.33,5.64,0000 0000 0000 0000 000000
2015-12-03 05:30:51,0.17,1.51,0.00,20.04,24.65,28.27,14.89,50.77,1020.57,2042.99,2972.52,2787.97,3115.93,600.16,604.51,5.69,0000 0000 0000 0000 000000
2015-12-03 05:35:52,0.17,1.52,0.00,20.07,24.65,28.22,14.80,50.78,1020.58,2042.99,2969.48,2785.70,3113.42,599.73,604.05,5.74,0000 0000 0000 0000 000000
2015-12-03 05:40:54,0.17,1.53,0.00,20.08,24.65,28.22,14.85,50.79,1020.69,2042.99,2966.50,2783.42,3110.86,600.12,604.48,5.79,0000 0000 0000 0000 000000
2015-12-03 05:45:55,0.17,1.54,0.00,20.07,24.65,28.14,14.83,50.70,1020.63,2042.99,2963.39,2781.09,3108.40,599.78,604.19,5.84,0000 0000 0000 0000 000000
2015-12-03 05:50:57,0.18,1.54,0.00,20.09,24.65,28.28,14.85,50.82,1020.67,2042.99,2960.16,2778.75,3105.78,600.03,604.28,5.89,0000 0000 0000 0000 000000
2015-12-03 05:55:58,0.18,1.55,0.00,20.09,24.65,28.22,14.94,50.85,1020.77,2042.99,2956.97,2776.31,3103.05,600.34,604.76,5.94,0000 0000 0000 0000 000000
2015-12-03 06:00:59,0.18,1.56,0.00,20.12,24.65,28.25,14.86,50.81,1020.93,2042.99,2953.76,2773.86,3100.30,600.00,604.44,5.99,0000 0000 0000 0000 000000
2015-12-03 06:06:01,0.19,1.57,0.00,20.13,24.66,28.28,14.81,50.71,1020.97,2042.99,2950.55,2771.35,3097.61,599.90,604.37,6.04,0000 0000 0000 0000 000000
2015-12-03 06:11:02,0.18,1.58,0.00,20.14,24.67,28.28,14.83,50.63,1020.92,2042.99,2947.40,2768.91,3094.77,600.02,604.40,6.09,0000 0000 0000 0000 000000
2015-12-03 06:16:03,0.18,1.59,0.00,20.12,24.67,28.28,14.82,50.76,1020.89,2042.99,2944.19,2766.48,3092.07,600.32,604.75,6.14,0000 0000 0000 0000 000000
2015-12-03 06:21:05,0.19,1.60,0.00,20.16,24.67,28.26,14.80,50.76,1020.95,2042.99,2940.84,2763.95,3089.36,600.18,604.54,6.19,0000 0000 0000 0000 000000
2015-12-03 06:26:06,0.18,1.61,0.00,20.17,24.69,28.19,14.80,50.89,1020.98,2042.99,2937.54,2761.48,3086.64,599.90,604.30,6.24,0000 0000 0000 0000 000000
2015-12-03 06:31:07,0.20,1.62,0.00,20.17,24.70,28.27,14.82,50.85,1021.01,2042.99,2934.14,2758.98,3083.81,599.91,604.24,6.29,0000 0000 0000 0000 000000
2015-12-03 06:36:09,0.18,1.63,0.00,20.16,24.70,28.32,14.83,50.76,1021.01,2042.98,2930.88,2756.50,3081.09,600.10,604.42,6.34,0000 0000 0000 0000 000000
2015-12-03 06:41:10,0.19,1.64,0.00,20.20,24.71,28.29,14.81,50.90,1021.01,2042.97,2927.58,2754.01,3078.34,599.84,604.16,6.39,0000 0000 0000 0000 000000
2015-12-03 06:46:12,0.19,1.65,0.00,20.19,24.72,28.26,14.83,50.86,1021.01,2042.98,2924.23,2751.60,3075.59,599.85,604.20,6.44,0000 0000 0000 0000 000000
2015-12-03 06:51:13,0.19,1.66,0.00,20.22,24.72,28.32,14.80,50.88,1021.01,2042.98,2920.95,2749.23,3072.79,599.84,604.06,6.49,0000 0000 0000 0000 000000
2015-12-03 06:56:14,0.22,1.67,0.00,20.22,24.72,28.33,14.82,50.78,1021.01,2042.98,2917.16,2746.54,3069.97,599.90,604.18,6.54,0000 0000 0000 0000 000000
2015-12-03 07:01:16,0.22,1.68,0.00,20.24,24.74,28.39,14.81,50.85,1021.01,2042.98,2913.13,2743.60,3066.77,599.81,604.06,6.59,0000 0000 0000 0000 000000
2015-12-03 07:06:17,0.21,1.69,0.00,20.23,24.75,28.33,14.81,50.77,1021.02,2042.99,2909.33,2740.83,3063.69,599.88,604.28,6.64,0000 0000 0000 0000 000000
2015-12-03 07:11:18,0.19,1.70,0.00,20.25,24.75,28.28,14.84,50.73,1021.02,2042.90,2905.80,2738.21,3060.74,600.06,604.34,6.69,0000 0000 0000 0000 000000
2015-12-03 07:16:19,0.20,1.71,0.00,20.28,24.76,28.31,14.71,50.77,1021.03,2042.78,2902.03,2735.50,3057.76,599.56,603.71,6.74,0000 0000 0000 0000 000000
2015-12-03 07:21:21,0.21,1.72,0.00,20.28,24.77,28.37,14.87,50.82,1021.05,2042.59,2897.95,2732.60,3054.57,600.30,604.48,6.79,0000 0000 0000 0000 000000
2015-12-03 07:26:22,0.21,1.73,0.00,20.30,24.77,28.39,14.80,50.85,1021.04,2042.38,2894.15,2729.81,3051.48,600.06,604.28,6.84,0000 0000 0000 0000 000000
2015-12-03 07:31:23,0.18,1.74,0.00,20.32,24.77,28.42,14.81,50.83,1021.02,2042.17,2890.36,2727.11,3048.53,599.98,604.07,6.89,0000 0000 0000 0000 000000
2015-12-03 07:36:25,0.20,1.75,0.00,20.34,24.79,28.35,14.76,50.79,1021.02,2042.13,2886.71,2724.45,3045.59,600.13,604.16,6.94,0000 0000 0000 0000 000000
2015-12-03 07:41:26,0.22,1.77,0.00,20.33,24.80,28.40,14.87,50.88,1021.02,2042.13,2882.94,2721.77,3042.67,600.04,604.11,6.99,0000 0000 0000 0000 000000
2015-12-03 07:46:27,0.21,1.78,0.00,20.33,24.80,28.42,14.75,50.81,1021.03,2042.11,2879.30,2718.99,3039.60,599.82,603.88,7.04,0000 0000 0000 0000 000000
2015-12-03 07:51:28,0.20,1.78,0.00,20.33,24.82,28.45,14.82,50.89,1021.03,2042.05,2875.72,2716.19,3036.54,599.85,603.96,7.09,0000 0000 0000 0000 000000
2015-12-03 07:56:30,0.22,1.80,0.00,20.37,24.82,28.40,14.84,50.85,1021.04,2042.04,2871.94,2713.36,3033.39,600.08,604.06,7.14,0000 0000 0000 0000 000000
2015-12-03 08:01:31,0.22,1.81,0.00,20.38,24.83,28.43,14.79,50.94,1021.02,2042.02,2868.11,2710.50,3030.23,600.02,603.97,7.19,0000 0000 0000 0000 000000
2015-12-03 08:06:32,0.22,1.82,0.00,20.40,24.85,28.47,14.75,50.61,1021.02,2042.02,2864.40,2707.67,3027.12,599.74,603.67,7.24,0000 0000 0000 0000 000000
2015-12-03 08:11:33,0.22,1.83,0.00,20.39,24.85,28.41,14.85,50.63,1021.04,2042.00,2860.64,2704.93,3024.06,600.02,604.04,7.29,0000 0000 0000 0000 000000
2015-12-03 08:16:34,0.22,1.84,0.00,20.39,24.87,28.50,14.75,50.77,1021.03,2042.00,2856.89,2702.09,3020.91,600.09,604.04,7.34,0000 0000 0000 0000 000000
2015-12-03 08:21:35,0.22,1.85,0.00,20.42,24.87,28.41,14.81,50.82,1021.02,2042.00,2853.09,2699.29,3017.79,599.90,603.79,7.39,0000 0000 0000 0000 000000
2015-12-03 08:26:37,0.22,1.87,0.00,20.40,24.88,28.42,14.78,50.82,1021.05,2042.00,2849.35,2696.49,3014.77,599.90,603.87,7.44,0000 0000 0000 0000 000000
2015-12-03 08:31:38,0.23,1.88,0.00,20.40,24.90,28.52,14.82,50.88,1021.04,2042.00,2845.36,2693.56,3011.49,599.99,603.85,7.49,0000 0000 0000 0000 000000
2015-12-03 08:36:39,0.24,1.89,0.00,20.43,24.90,28.44,14.83,50.93,1021.09,2041.99,2841.30,2690.49,3008.15,599.97,603.84,7.54,0000 0000 0000 0000 000000
2015-12-03 08:41:40,0.25,1.90,0.00,20.41,24.91,28.44,14.79,50.85,1021.08,2041.99,2836.93,2687.30,3004.79,600.00,603.94,7.59,0000 0000 0000 0000 000000
2015-12-03 08:46:41,0.27,1.92,0.00,20.42,24.92,28.55,14.81,50.83,1021.02,2041.99,2832.42,2683.97,3001.01,600.13,603.99,7.65,0000 0000 0000 0000 000000
2015-12-03 08:51:43,0.32,1.93,0.00,20.44,24.93,28.55,14.79,50.88,1021.08,2041.98,2827.40,2680.18,2996.79,600.12,604.03,7.70,0000 0000 0000 0000 000000
2015-12-03 08:56:44,0.49,1.95,0.00,20.46,24.95,28.49,14.83,50.91,1021.08,2041.94,2820.03,2674.66,2990.70,600.24,604.07,7.75,0000 0000 0000 0000 000000
2015-12-03 09:01:46,0.49,1.98,0.00,20.47,24.95,28.50,14.83,50.92,1021.08,2041.86,2811.54,2668.27,2983.65,600.28,604.09,7.80,0000 0000 0000 0000 000000
2015-12-03 09:06:47,0.49,2.00,0.00,20.50,24.95,28.50,14.85,50.92,1021.14,2041.70,2803.42,2662.15,2976.96,600.09,603.92,7.85,0000 0000 0000 0000 000000
2015-12-03 09:11:48,0.53,2.03,0.00,20.52,24.96,28.52,14.83,50.77,1021.30,2041.57,2794.77,2655.60,2969.76,600.21,603.95,7.90,0000 0000 0000 0000 000000
2015-12-03 09:16:50,0.58,2.06,0.00,20.53,24.97,28.57,14.81,50.81,1021.32,2041.34,2785.14,2648.14,2961.61,600.24,604.06,7.95,0000 0000 0000 0000 000000
2015-12-03 09:21:51,0.61,2.09,0.00,20.52,24.97,28.59,14.84,51.01,1021.32,2041.03,2775.22,2640.55,2953.25,600.12,604.04,8.00,0000 0000 0000 0000 000000
2015-12-03 09:26:52,0.65,2.12,0.07,20.50,24.97,28.66,14.82,50.95,1021.43,2041.05,2764.91,2632.81,2944.76,600.02,604.00,8.05,0000 0000 0000 0000 000000
2015-12-03 09:31:53,0.66,2.15,1.00,20.56,24.97,28.61,14.86,51.04,1021.47,2041.01,2754.35,2624.85,2935.95,599.92,603.77,8.10,0000 0000 0000 0000 000000
2015-12-03 09:36:55,0.66,2.18,1.00,20.53,24.99,28.62,14.86,50.98,1021.48,2041.00,2743.94,2617.03,2927.21,600.26,604.19,8.15,0000 0000 0000 0000 000000
2015-12-03 09:41:56,0.80,2.22,1.00,20.55,25.00,28.62,14.86,51.00,1021.43,2041.00,2731.98,2607.98,2917.14,600.22,604.08,8.20,0000 0000 0000 0000 000000
2015-12-03 09:46:57,0.83,2.26,1.00,20.54,25.00,28.60,14.79,50.94,1021.47,2041.00,2719.19,2598.36,2906.39,600.05,603.93,8.25,0000 0000 0000 0000 000000
2015-12-03 09:51:58,1.12,2.31,1.00,20.60,25.01,28.60,14.85,51.02,1021.45,2040.99,2702.68,2586.00,2892.56,600.11,603.91,8.30,0000 0000 0000 0000 000000
2015-12-03 09:57:00,1.35,2.38,1.00,20.62,25.02,28.60,14.81,50.91,1021.44,2040.99,2683.20,2571.21,2876.11,600.02,603.73,8.35,0000 0000 0000 0000 000000
2015-12-03 10:02:02,1.46,2.45,1.00,20.63,25.02,28.59,14.79,51.03,1021.44,2040.99,2661.16,2554.82,2857.48,600.09,603.89,8.40,0000 0000 0000 0000 000000
2015-12-03 10:07:03,1.52,2.52,1.00,20.62,25.03,28.58,14.80,51.08,1021.45,2040.97,2638.70,2537.90,2838.33,599.95,603.66,8.45,0000 0000 0000 0000 000000
2015-12-03 10:12:04,1.07,2.59,1.00,20.61,25.05,28.60,14.85,51.10,1021.45,2040.95,2621.09,2524.46,2823.31,600.10,603.83,8.50,0000 0000 0000 0000 000000
2015-12-03 10:17:05,1.07,2.64,1.00,20.61,25.05,28.63,14.73,50.98,1021.46,2040.86,2605.88,2512.85,2810.38,600.07,603.83,8.55,0000 0000 0000 0000 000000
2015-12-03 10:22:06,1.23,2.70,1.00,20.59,25.07,28.71,14.87,51.02,1021.48,2040.81,2588.53,2499.80,2795.48,600.21,603.97,8.60,0000 0000 0000 0000 000000
2015-12-03 10:27:07,1.30,2.76,1.00,20.60,25.07,28.67,14.71,51.09,1021.49,2040.50,2569.85,2485.80,2779.39,599.80,603.60,8.65,0000 0000 0000 0000 000000
2015-12-03 10:32:08,1.58,2.84,1.00,20.63,25.09,28.66,14.82,51.21,1021.49,2040.20,2547.96,2469.07,2760.30,600.18,603.81,8.70,0000 0000 0000 0000 000000
2015-12-03 10:37:09,1.48,2.91,1.00,20.64,25.10,28.64,14.78,51.21,1021.50,2040.06,2526.58,2452.75,2741.93,600.00,603.73,8.75,0000 0000 0000 0000 000000
2015-12-03 10:42:10,1.32,2.99,1.00,20.63,25.10,28.68,14.84,51.11,1021.50,2040.02,2507.73,2438.48,2725.70,600.20,603.92,8.80,0000 0000 0000 0000 000000
2015-12-03 10:47:11,0.83,3.04,1.00,20.62,25.12,28.73,14.81,51.04,1021.50,2040.00,2494.61,2428.50,2714.24,599.98,603.75,8.85,0000 0000 0000 0000 000000
2015-12-03 10:52:12,0.70,3.07,1.00,20.63,25.12,28.72,14.81,51.33,1021.50,2040.00,2485.39,2421.40,2706.28,599.94,603.69,8.90,0000 0000 0000 0000 000000
2015-12-03 10:57:14,0.55,3.10,1.00,20.66,25.12,28.75,14.86,51.33,1021.50,2040.00,2477.14,2415.10,2699.20,599.98,603.71,8.95,0000 0000 0000 0000 000000
2015-12-03 11:02:15,0.46,3.13,1.00,20.67,25.14,28.80,14.81,51.14,1021.50,2040.00,2470.76,2410.27,2693.63,600.02,603.67,9.00,0000 0000 0000 0000 000000
2015-12-03 11:07:16,0.43,3.15,1.00,20.68,25.15,28.73,14.88,51.28,1021.50,2040.00,2464.84,2405.78,2688.54,600.23,603.71,9.05,0000 0000 0000 0000 000000
2015-12-03 11:12:18,0.43,3.17,1.00,20.69,25.15,28.82,14.74,51.18,1021.50,2040.00,2458.98,2401.30,2683.61,599.83,603.55,9.10,0000 0000 0000 0000 000000
2015-12-03 11:17:19,0.44,3.20,1.00,20.69,25.15,28.80,14.79,51.20,1021.50,2040.00,2453.08,2396.65,2678.54,599.66,603.36,9.15,0000 0000 0000 0000 000000
2015-12-03 11:22:20,0.39,3.22,1.00,20.71,25.17,28.78,14.85,51.31,1021.50,2040.00,2447.87,2392.56,2673.95,600.19,603.78,9.20,0000 0000 0000 0000 000000
2015-12-03 11:27:22,0.35,3.23,0.83,20.70,25.17,28.76,14.78,51.28,1021.50,2040.00,2443.18,2388.86,2669.80,599.95,603.52,9.25,0000 0000 0000 0000 000000
2015-12-03 11:32:23,0.32,3.25,0.00,20.69,25.17,28.84,14.79,51.31,1021.50,2039.98,2438.90,2385.44,2666.03,600.12,603.74,9.30,0000 0000 0000 0000 000000
2015-12-03 11:37:24,0.33,3.27,0.00,20.72,25.19,28.79,14.81,51.35,1021.52,2039.98,2434.62,2382.06,2662.30,600.25,603.64,9.35,0000 0000 0000 0000 000000
2015-12-03 11:42:25,0.32,3.29,0.00,20.73,25.20,28.85,14.87,51.46,1021.51,2039.99,2430.46,2378.74,2658.57,600.12,603.66,9.40,0000 0000 0000 0000 000000
2015-12-03 11:47:27,0.33,3.30,0.00,20.75,25.20,28.79,14.77,51.43,1021.51,2039.97,2426.19,2375.43,2654.87,600.00,603.53,9.45,0000 0000 0000 0000 000000
2015-12-03 11:52:28,0.36,3.32,0.00,20.77,25.21,28.76,14.75,51.43,1021.51,2039.97,2421.61,2371.94,2650.89,600.03,603.53,9.50,0000 0000 0000 0000 000000
2015-12-03 11:57:30,0.33,3.34,0.00,20.77,25.22,28.76,14.91,51.46,1021.51,2039.98,2417.23,2368.54,2647.04,600.08,603.54,9.55,0000 0000 0000 0000 000000
2015-12-03 12:02:31,0.30,3.35,0.00,20.77,25.22,28.79,14.81,51.47,1021.50,2039.89,2412.98,2365.44,2643.31,600.01,603.40,9.60,0000 0000 0000 0000 000000
2015-12-03 12:07:32,0.32,3.37,0.00,20.77,25.23,28.79,14.85,51.49,1021.51,2039.80,2408.75,2362.18,2639.64,600.24,603.66,9.65,0000 0000 0000 0000 000000
2015-12-03 12:12:33,0.37,3.39,0.00,20.80,25.25,28.80,14.77,51.22,1021.50,2039.75,2404.05,2358.56,2635.55,599.93,603.25,9.70,0000 0000 0000 0000 000000
2015-12-03 12:17:35,0.36,3.41,0.00,20.77,25.25,28.85,14.77,51.47,1021.50,2039.75,2399.25,2354.83,2631.39,599.88,603.32,9.75,0000 0000 0000 0000 000000
2015-12-03 12:22:36,0.32,3.42,0.00,20.77,25.25,28.86,14.86,51.47,1021.50,2039.69,2394.86,2351.45,2627.60,600.30,603.74,9.80,0000 0000 0000 0000 000000
2015-12-03 12:27:37,0.30,3.44,0.00,20.80,25.27,28.81,14.72,51.35,1021.50,2039.36,2390.60,2348.09,2623.90,599.83,603.23,9.85,0000 0000 0000 0000 000000
2015-12-03 12:32:38,0.30,3.45,0.00,20.79,25.27,28.86,14.84,51.48,1021.50,2039.44,2386.82,2345.18,2620.72,599.98,603.46,9.91,0000 0000 0000 0000 000000
2015-12-03 12:37:39,0.21,3.47,0.00,20.82,25.27,28.86,14.79,51.43,1021.50,2039.27,2383.64,2342.63,2617.93,600.01,603.41,9.96,0000 0000 0000 0000 000000
2015-12-03 12:42:40,0.30,3.48,0.00,20.83,25.29,28.90,14.92,51.42,1021.50,2039.16,2379.93,2339.80,2614.75,600.31,603.64,10.01,0000 0000 0000 0000 000000
2015-12-03 12:47:42,0.26,3.49,0.00,20.86,25.30,28.90,14.81,51.38,1021.51,2039.06,2376.28,2336.91,2611.48,600.08,603.36,10.06,0000 0000 0000 0000 000000
2015-12-03 12:52:43,0.32,3.51,0.00,20.88,25.30,28.86,14.82,51.41,1021.50,2039.05,2372.42,2333.87,2608.06,600.13,603.30,10.11,0000 0000 0000 0000 000000
2015-12-03 12:57:44,0.28,3.52,0.00,20.88,25.31,28.92,14.76,51.43,1021.50,2039.04,2368.75,2330.94,2604.81,599.97,603.24,10.16,0000 0000 0000 0000 000000
2015-12-03 13:02:45,0.28,3.54,0.00,20.87,25.32,28.94,14.75,51.41,1021.50,2039.01,2365.34,2328.14,2601.67,599.97,603.16,10.21,0000 0000 0000 0000 000000